,

(GMT )
Prerov

Weather History for LKPO - October, 2012

Change the Weather History Date:

Monday, October 8, 2012

  Actual Average Record
Temperature  
Mean Temperature 46 °F -  
Max Temperature 53 °F - - ()
Min Temperature 39 °F - - ()
Degree Days  
Heating Degree Days 19    
Moisture  
Dew Point 40 °F    
Average Humidity 81    
Maximum Humidity 100    
Minimum Humidity 54    
Precipitation  
Precipitation 0.00 in - - ()
Sea Level Pressure  
Sea Level Pressure 30.10 in    
Wind  
Wind Speed 3 mph ()    
Max Wind Speed 13 mph    
Max Gust Speed -    
Visibility 6.2 miles    
Events      
T = Trace of Precipitation, MM = Missing Value Source: Averaged Metar Reports

Daily Weather History Graph

Daily Weather History Graph

Search for Another Location

Airport or City:

Trip Planner

Search our weather history database for the weather conditions in past years. The results will help you decide how hot, cold, wet, or windy it might be!

Date:

Astronomy

Oct. 08, 2012 Rise Set
Actual Time 7:01 AM CEST 6:13 PM CEST
Civil Twilight 6:29 AM CEST 6:45 PM CEST
Nautical Twilight 5:52 AM CEST 7:22 PM CEST
Astronomical Twilight 5:14 AM CEST 7:59 PM CEST
Moon 11:48 PM CEST (10/8) 2:25 PM CEST (10/8)
Length of Visible Light 12h 16m
Length of Day
11h 12m
Waning Gibbous, 49% of the Moon is Illuminated
Oct 8
Waning Gibbous
Oct 15
New
Oct 22
First Quarter
Oct 29
Full
Nov 7
Last Quarter

Hourly Weather History & Observations

Time (CEST) Temp. Windchill Dew Point Humidity Pressure Visibility Wind Dir Wind Speed Gust Speed Precip Events Conditions
12:00 AM 41.0 °F - 41.0 °F 100% 30.06 in - Calm Calm - N/A   Clear
1:00 AM 39.2 °F - 37.4 °F 93% 30.09 in - Calm Calm - N/A   Clear
2:00 AM 41.0 °F - 41.0 °F 100% 30.09 in 6.2 mi Calm Calm - N/A   Scattered Clouds
3:00 AM 44.6 °F 40.2 °F 41.0 °F 87% 30.09 in - West 8.1 mph - N/A   Clear
4:00 AM 41.0 °F - 39.2 °F 93% 30.12 in - Variable 2.3 mph - N/A   Clear
5:00 AM 39.2 °F 35.9 °F 37.4 °F 93% 30.12 in - NW 4.6 mph - N/A   Clear
6:00 AM 39.2 °F - 37.4 °F 93% 30.12 in - Calm Calm - N/A   Clear
7:00 AM 39.2 °F - 37.4 °F 93% 30.12 in - Variable 2.3 mph - N/A   Clear
8:00 AM 39.2 °F 35.9 °F 37.4 °F 93% 30.12 in - West 4.6 mph - N/A   Clear
9:00 AM 44.6 °F - 41.0 °F 87% 30.15 in - South 2.3 mph - N/A   Clear
10:00 AM 48.2 °F - 44.6 °F 87% 30.15 in 6.2 mi NW 9.2 mph - N/A   Scattered Clouds
11:00 AM 50.0 °F - 42.8 °F 76% 30.15 in 6.2 mi NNW 9.2 mph - N/A   Scattered Clouds
12:00 PM 53.6 °F - 41.0 °F 62% 30.15 in 6.2 mi NW 12.7 mph - N/A   Scattered Clouds
1:00 PM 53.6 °F - 39.2 °F 58% 30.12 in 6.2 mi WNW 10.4 mph - N/A   Scattered Clouds
2:00 PM 51.8 °F - 39.2 °F 62% 30.12 in - NW 9.2 mph - N/A   Clear
3:00 PM 53.6 °F - 37.4 °F 54% 30.09 in - WNW 9.2 mph - N/A   Clear
4:00 PM 51.8 °F - 39.2 °F 62% 30.09 in - NW 4.6 mph - N/A   Clear
5:00 PM 51.8 °F - 41.0 °F 67% 30.06 in - NW 4.6 mph - N/A   Clear
6:00 PM 51.8 °F - 39.2 °F 62% 30.06 in - North 3.5 mph - N/A   Clear
7:00 PM 48.2 °F - 41.0 °F 76% 30.06 in - Calm Calm - N/A   Clear
8:00 PM 44.6 °F - 41.0 °F 87% 30.06 in - WNW 1.2 mph - N/A   Clear
10:00 PM 39.2 °F - 37.4 °F 93% 30.04 in - SSW 2.3 mph - N/A   Clear
11:00 PM 41.0 °F 38.0 °F 39.2 °F 93% 30.04 in - South 4.6 mph - N/A   Clear